SCP
-0 -0 0 0 0 0 0 0 0 0 0 0 0 0 0 0 0 0 0 0 0 0 0 0 0 0 0 0 0 0 0 0
-0 0 0 0 -0 -0 -0 0 0 0 0 0 0 0 0 0 0 0 0 0 0 0 0 0 0 0 0 0 0 0 0 0
0 0 0 0 0 0 0 -0 0 0 0 0 0 0 0 0 0 0 0 0 0 0 0 0 0 0 0 0 0 0 0 0
0 0 0 0 0 0 0 0 -0 0 0 0 0 0 0 0 0 0 0 0 0 0 0 0 0 0 0 0 0 0 0 0
0 0 0 0 0 0 0 0 0 -0 -0 0 0 0 0 0 0 0 0 0 0 0 0 0 0 0 0 0 0 0 0 0
0 0 0 0 0 0 0 0 0 0 0 0 0 0 0 0 0 0 0 0 0 0 0 0 0 0 0 0 0 0 0 0
0 0 0 0 0 0 0 0 0 0 0 0 0 -0 0 0 0 0 0 0 0 0 0 0 0 0 0 0 0 0 0 0
0 0 0 0 0 0 0 0 0 0 0 0 0 0 0 0 0 0 0 0 0 0 0 0 0 0 0 0 0 0 0 0
-0 -0 -0 0 0 0 0 0 0 0 0 0 0 0 0 0 0 0 0 0 0 0 0 0 0 0 0 0 0 0 0 0
-0 -0 -0 -0 -0 -0 0 0 0 0 0 0 0 0 0 0 0 0 0 0 0 0 0 0 0 0 0 0 0 0 0 0
-0 -0 -0 -0 -0 -0 -0 -0 -0 0 0 0 0 0 0 0 0 0 0 0 0 0 0 0 0 0 0 0 0 0 0 0
-0 -0 -0 -0 -0 -0 -0 0 -0 -0 -0 -0 -0 0 0 0 0 0 0 0 0 0 0 0 0 0 0 0 0 0 0 0
0 -0 -0 0 -0 -0 0 -0 0 0 0 0 0 -0 -0 -0 0 0 0 0 0 0 0 0 0 0 0 0 0 0 0 0
0 0 0 0 0 -0 -0 -0 -0 -0 0 0 0 0 0 -0 -0 0 0 0 0 0 0 0 0 0 0 0 0 0 0 0
0 0 0 0 0 0 -0 -0 -0 -0 -0 -0 -0 0 -0 0 0 0 0 0 0 0 0 0 0 0 0 0 0 0 0 0
0 0 0 0 0 0 0 -0 -0 -0 -0 -0 -0 -0 -0 0 0 0 0 0 0 0 0 0 0 0 0 0 0 0 0 0
0 0 0 0 0 0 0 -0 -0 -0 -0 -0 -0 -0 -0 0 0 0 0 0 0 0 0 0 0 0 0 0 0 0 0 0
0 0 0 0 0 0 0 -0 -0 -0 0 0 -0 -0 0 0 0 0 0 0 0 0 0 0 0 0 0 0 0 0 0 0
0 0 0 0 0 0 0 0 0 0 0 0 0 0 0 0 0 0 0 0 0 0 0 0 0 0 0 0 0 0 0 0
0 0 0 0 0 0 0 0 0 0 0 0 0 0 0 0 0 0 0 0 0 0 0 0 0 0 0 -0 0 0 0 0
Wind_Speed_500mb
53 43 42 46 47 40 31 34 37 35 39 47 56 62 69 74 79 78 78 81 82 81 85 91 94 91 91 89 85 81 77 71
51 40 38 40 41 43 41 46 56 58 58 59 62 70 73 79 79 82 84 84 85 84 82 86 93 96 96 93 89 87 82 78
53 54 53 50 51 57 53 44 39 46 53 59 67 74 80 89 90 90 91 90 86 86 86 86 89 97 100 98 95 95 91 85
67 66 65 66 68 65 63 70 64 54 47 48 51 60 73 84 94 99 100 97 96 96 94 93 93 98 103 102 100 99 96 90
76 71 70 77 75 78 76 72 78 76 74 66 57 58 62 64 82 96 101 105 105 105 102 100 95 98 102 105 106 101 101 96
73 73 77 79 85 85 82 80 80 83 78 85 72 63 60 67 71 85 97 99 106 109 108 105 103 103 107 110 110 108 107 103
64 66 80 79 82 89 91 84 81 82 85 77 77 70 64 61 67 74 86 94 101 109 108 111 114 110 106 107 111 113 111 108
63 64 71 72 76 79 83 90 81 77 82 84 80 74 75 65 60 68 77 85 98 105 109 109 117 110 106 109 110 113 116 110
57 64 67 69 72 78 79 83 87 82 83 86 84 78 79 76 63 61 71 80 89 96 101 102 112 105 104 108 112 115 112 109
62 62 65 70 71 77 82 84 86 91 88 88 90 87 76 74 72 60 60 75 85 86 89 102 106 99 103 108 115 115 114 113
67 65 67 69 75 82 83 87 92 94 93 95 87 83 81 73 68 64 56 62 71 76 84 92 98 98 103 110 112 113 116 111
74 78 79 79 82 86 92 98 100 103 105 96 95 86 79 72 68 64 57 49 55 66 73 80 88 88 97 102 111 109 116 116
78 82 84 89 93 96 99 100 105 110 110 112 100 97 88 75 68 65 57 55 50 53 67 71 76 77 85 93 108 98 101 106
87 95 99 101 101 106 113 111 110 110 120 116 112 104 100 81 73 69 65 58 55 54 64 65 69 72 84 84 88 89 95 99
95 105 113 113 116 119 121 118 116 120 118 123 116 108 96 96 77 71 73 73 70 62 60 63 65 67 77 80 86 79 89 90
97 104 120 123 126 126 126 119 123 123 124 117 118 104 98 91 87 75 74 79 87 74 71 65 68 71 76 92 99 96 90 79
107 104 117 116 123 116 108 111 117 119 117 111 104 103 94 83 90 77 75 76 75 83 75 75 67 59 65 86 103 104 90 80
101 102 101 104 112 111 109 102 101 103 105 100 94 87 83 67 78 81 73 66 70 70 64 71 69 66 59 63 84 80 79 84
98 99 100 104 107 100 96 93 91 89 89 86 85 81 74 64 71 78 69 72 66 68 60 64 62 57 61 56 89 83 83 90
94 91 89 92 96 97 92 91 90 87 84 79 76 70 71 69 67 75 68 64 61 61 62 58 56 52 55 64 100 104 110 100
Wind_Direction_500mb
354 348 347 6 0 352 344 333 315 296 283 270 261 257 255 250 248 248 246 243 241 237 235 235 233 231 229 229 228 229 231 234
12 11 6 5 359 349 340 331 323 310 295 283 275 269 264 258 254 251 249 246 242 239 235 233 233 232 231 230 229 229 231 233
5 4 6 4 0 4 1 351 326 303 297 297 290 281 276 269 262 256 251 249 246 244 240 235 232 232 232 232 230 230 229 232
357 360 1 4 4 360 360 2 357 342 314 295 289 290 286 279 270 264 257 251 246 243 242 237 231 230 231 232 233 232 232 232
359 355 355 356 354 352 352 354 353 350 347 325 307 304 303 294 277 269 261 256 251 249 244 240 234 231 231 231 231 231 232 232
351 347 344 348 348 347 346 344 344 349 349 348 324 304 299 295 287 277 268 262 257 252 248 243 238 233 229 229 229 229 230 230
344 342 341 344 340 338 339 339 338 340 342 345 353 333 300 287 286 282 275 266 259 254 249 245 241 238 233 231 229 229 229 228
335 337 334 336 335 333 331 333 335 334 334 334 340 346 342 303 285 277 274 270 262 256 251 247 244 240 236 232 230 229 228 227
329 327 324 328 328 328 330 331 331 330 325 327 329 331 337 340 310 292 280 269 263 257 252 247 243 240 236 235 232 228 228 228
320 321 322 325 328 328 328 327 328 327 324 321 322 322 323 329 334 313 289 274 262 257 252 244 241 237 232 233 233 228 224 224
315 316 316 323 327 328 329 329 327 324 321 318 318 314 314 316 323 323 304 280 268 261 254 248 243 236 231 230 232 228 223 221
308 310 314 317 319 319 320 322 322 321 319 315 314 314 312 309 305 307 306 293 276 265 257 251 244 236 231 230 232 227 223 220
304 304 305 308 310 310 310 314 314 314 314 314 312 308 308 301 297 290 289 293 284 271 260 252 245 235 229 227 234 231 229 224
303 302 302 303 304 304 307 307 308 308 310 309 307 305 302 298 288 283 277 274 272 261 253 250 247 236 224 212 223 229 223 224
303 301 301 302 301 302 303 304 304 303 302 302 301 298 297 294 287 280 273 265 258 259 257 251 241 236 220 206 214 225 223 219
299 297 298 300 299 299 300 301 300 300 299 296 294 294 293 288 287 280 274 269 264 258 260 255 253 242 226 216 207 214 226 214
297 295 296 297 296 297 297 297 298 296 293 292 291 290 287 284 282 280 275 275 270 262 256 258 255 248 242 218 206 215 217 213
296 295 293 294 295 298 300 300 295 291 290 289 288 286 284 281 275 276 279 273 270 260 252 256 252 246 233 215 202 212 210 213
301 301 302 303 301 305 305 302 298 293 290 287 286 285 284 280 270 270 276 276 273 252 244 234 237 232 231 206 190 197 204 212
305 300 299 297 297 305 306 301 298 294 289 284 281 276 274 268 268 268 271 271 267 261 245 228 225 226 211 199 192 193 198 200
Wind_Speed_850mb
53 43 42 46 47 40 31 34 37 35 39 47 56 62 69 74 79 78 78 81 82 81 85 91 94 91 91 89 85 81 77 71
51 40 38 40 41 43 41 46 56 58 58 59 62 70 73 79 79 82 84 84 85 84 82 86 93 96 96 93 89 87 82 78
53 54 53 50 51 57 53 44 39 46 53 59 67 74 80 89 90 90 91 90 86 86 86 86 89 97 100 98 95 95 91 85
67 66 65 66 68 65 63 70 64 54 47 48 51 60 73 84 94 99 100 97 96 96 94 93 93 98 103 102 100 99 96 90
76 71 70 77 75 78 76 72 78 76 74 66 57 58 62 64 82 96 101 105 105 105 102 100 95 98 102 105 106 101 101 96
73 73 77 79 85 85 82 80 80 83 78 85 72 63 60 67 71 85 97 99 106 109 108 105 103 103 107 110 110 108 107 103
64 66 80 79 82 89 91 84 81 82 85 77 77 70 64 61 67 74 86 94 101 109 108 111 114 110 106 107 111 113 111 108
63 64 71 72 76 79 83 90 81 77 82 84 80 74 75 65 60 68 77 85 98 105 109 109 117 110 106 109 110 113 116 110
57 64 67 69 72 78 79 83 87 82 83 86 84 78 79 76 63 61 71 80 89 96 101 102 112 105 104 108 112 115 112 109
62 62 65 70 71 77 82 84 86 91 88 88 90 87 76 74 72 60 60 75 85 86 89 102 106 99 103 108 115 115 114 113
67 65 67 69 75 82 83 87 92 94 93 95 87 83 81 73 68 64 56 62 71 76 84 92 98 98 103 110 112 113 116 111
74 78 79 79 82 86 92 98 100 103 105 96 95 86 79 72 68 64 57 49 55 66 73 80 88 88 97 102 111 109 116 116
78 82 84 89 93 96 99 100 105 110 110 112 100 97 88 75 68 65 57 55 50 53 67 71 76 77 85 93 108 98 101 106
87 95 99 101 101 106 113 111 110 110 120 116 112 104 100 81 73 69 65 58 55 54 64 65 69 72 84 84 88 89 95 99
95 105 113 113 116 119 121 118 116 120 118 123 116 108 96 96 77 71 73 73 70 62 60 63 65 67 77 80 86 79 89 90
97 104 120 123 126 126 126 119 123 123 124 117 118 104 98 91 87 75 74 79 87 74 71 65 68 71 76 92 99 96 90 79
107 104 117 116 123 116 108 111 117 119 117 111 104 103 94 83 90 77 75 76 75 83 75 75 67 59 65 86 103 104 90 80
101 102 101 104 112 111 109 102 101 103 105 100 94 87 83 67 78 81 73 66 70 70 64 71 69 66 59 63 84 80 79 84
98 99 100 104 107 100 96 93 91 89 89 86 85 81 74 64 71 78 69 72 66 68 60 64 62 57 61 56 89 83 83 90
94 91 89 92 96 97 92 91 90 87 84 79 76 70 71 69 67 75 68 64 61 61 62 58 56 52 55 64 100 104 110 100
Wind_Direction_850mb
354 348 347 6 0 352 344 333 315 296 283 270 261 257 255 250 248 248 246 243 241 237 235 235 233 231 229 229 228 229 231 234
12 11 6 5 359 349 340 331 323 310 295 283 275 269 264 258 254 251 249 246 242 239 235 233 233 232 231 230 229 229 231 233
5 4 6 4 0 4 1 351 326 303 297 297 290 281 276 269 262 256 251 249 246 244 240 235 232 232 232 232 230 230 229 232
357 360 1 4 4 360 360 2 357 342 314 295 289 290 286 279 270 264 257 251 246 243 242 237 231 230 231 232 233 232 232 232
359 355 355 356 354 352 352 354 353 350 347 325 307 304 303 294 277 269 261 256 251 249 244 240 234 231 231 231 231 231 232 232
351 347 344 348 348 347 346 344 344 349 349 348 324 304 299 295 287 277 268 262 257 252 248 243 238 233 229 229 229 229 230 230
344 342 341 344 340 338 339 339 338 340 342 345 353 333 300 287 286 282 275 266 259 254 249 245 241 238 233 231 229 229 229 228
335 337 334 336 335 333 331 333 335 334 334 334 340 346 342 303 285 277 274 270 262 256 251 247 244 240 236 232 230 229 228 227
329 327 324 328 328 328 330 331 331 330 325 327 329 331 337 340 310 292 280 269 263 257 252 247 243 240 236 235 232 228 228 228
320 321 322 325 328 328 328 327 328 327 324 321 322 322 323 329 334 313 289 274 262 257 252 244 241 237 232 233 233 228 224 224
315 316 316 323 327 328 329 329 327 324 321 318 318 314 314 316 323 323 304 280 268 261 254 248 243 236 231 230 232 228 223 221
308 310 314 317 319 319 320 322 322 321 319 315 314 314 312 309 305 307 306 293 276 265 257 251 244 236 231 230 232 227 223 220
304 304 305 308 310 310 310 314 314 314 314 314 312 308 308 301 297 290 289 293 284 271 260 252 245 235 229 227 234 231 229 224
303 302 302 303 304 304 307 307 308 308 310 309 307 305 302 298 288 283 277 274 272 261 253 250 247 236 224 212 223 229 223 224
303 301 301 302 301 302 303 304 304 303 302 302 301 298 297 294 287 280 273 265 258 259 257 251 241 236 220 206 214 225 223 219
299 297 298 300 299 299 300 301 300 300 299 296 294 294 293 288 287 280 274 269 264 258 260 255 253 242 226 216 207 214 226 214
297 295 296 297 296 297 297 297 298 296 293 292 291 290 287 284 282 280 275 275 270 262 256 258 255 248 242 218 206 215 217 213
296 295 293 294 295 298 300 300 295 291 290 289 288 286 284 281 275 276 279 273 270 260 252 256 252 246 233 215 202 212 210 213
301 301 302 303 301 305 305 302 298 293 290 287 286 285 284 280 270 270 276 276 273 252 244 234 237 232 231 206 190 197 204 212
305 300 299 297 297 305 306 301 298 294 289 284 281 276 274 268 268 268 271 271 267 261 245 228 225 226 211 199 192 193 198 200